EW3775 Weather Reports


Display with metric or nautical units.
time (UTC)temp
F
wind
direction
speed
MPH
gust
MPH
rain 1hr
in
rain 24hr
in
rain mn
in
humidity
%
barometer
mb
20180522034922 50 339 0.0 0.0 0.00 0.00 0.00 87 1021.8
20180522033422 50 339 0.0 0.0 0.00 0.00 0.00 86 1021.8
20180522031926 50 339 0.0 0.0 0.00 0.00 0.00 86 1021.7
20180522030427 50 339 0.0 0.0 0.00 0.00 0.00 85 1021.5
20180522024928 50 339 0.0 0.0 0.00 0.00 0.00 84 1021.5
20180522023433 51 339 0.0 0.0 0.00 0.00 0.00 84 1021.4
20180522021932 52 339 0.0 0.0 0.00 0.00 0.00 82 1021.3
20180522020438 53 339 0.0 0.0 0.00 0.00 0.00 81 1021.3
20180522014938 54 339 0.0 0.0 0.00 0.00 0.00 79 1021.2
20180522013420 55 339 0.0 1.0 0.00 0.00 0.00 79 1021.1
20180522011924 56 339 0.0 0.0 0.00 0.00 0.00 77 1021.0
20180522010426 57 332 0.0 1.0 0.00 0.00 0.00 76 1020.8
20180522004930 58 332 0.0 1.0 0.00 0.00 0.00 73 1020.9
20180522003432 59 330 0.0 2.0 0.00 0.00 0.00 70 1020.8
20180522001932 61 337 0.0 2.0 0.00 0.00 0.00 67 1020.8
20180522000435 62 337 0.0 1.0 0.00 0.00 0.00 65 1020.9
20180521234937 64 337 1.0 2.0 0.00 0.00 0.00 60 1020.7
20180521233424 66 337 1.0 2.0 0.00 0.00 0.00 57 1020.8
20180521231924 70 337 0.0 2.0 0.00 0.00 0.00 50 1020.7
20180521230426 73 337 1.0 2.0 0.00 0.00 0.00 37 1020.8
20180521224930 75 269 1.0 2.0 0.00 0.00 0.00 30 1020.8
20180521223431 77 339 1.0 2.0 0.00 0.00 0.00 29 1020.7
20180521221935 77 18 1.0 3.0 0.00 0.00 0.00 29 1020.6
20180521220436 78 349 1.0 3.0 0.00 0.00 0.00 28 1020.7
20180521214937 78 314 1.0 4.0 0.00 0.00 0.00 29 1020.7
20180521213423 79 231 2.0 4.0 0.00 0.00 0.00 27 1020.7
20180521211923 78 12 1.0 5.0 0.00 0.00 0.00 29 1020.8
20180521210430 78 314 2.0 3.0 0.00 0.00 0.00 28 1021.0
20180521204929 78 268 2.0 3.0 0.00 0.00 0.00 29 1021.0
20180521203431 77 354 2.0 5.0 0.00 0.00 0.00 30 1021.0
20180521201935 78 301 3.0 6.0 0.00 0.00 0.00 29 1021.2
20180521200436 76 12 2.0 5.0 0.00 0.00 0.00 32 1021.2
20180521194920 78 318 2.0 6.0 0.00 0.00 0.00 32 1021.2
20180521193422 78 328 2.0 4.0 0.00 0.00 0.00 32 1021.3
20180521191921 76 335 1.0 8.0 0.00 0.00 0.00 34 1021.5
20180521190426 77 325 2.0 6.0 0.00 0.00 0.00 33 1021.6
20180521184927 77 4 2.0 5.0 0.00 0.00 0.00 34 1021.6
20180521183428 76 307 3.0 6.0 0.00 0.00 0.00 33 1021.8
20180521181931 76 350 1.0 8.0 0.00 0.00 0.00 35 1021.9
20180521180432 75 354 4.0 8.0 0.00 0.00 0.00 32 1022.0
20180521174935 77 319 2.0 5.0 0.00 0.00 0.00 35 1022.2
20180521173436 77 253 2.0 6.0 0.00 0.00 0.00 34 1022.4
20180521171937 75 23 2.0 5.0 0.00 0.00 0.00 38 1022.5
20180521170424 77 308 1.0 4.0 0.00 0.00 0.00 32 1022.7
20180521164923 75 51 3.0 6.0 0.00 0.00 0.00 38 1022.9
20180521163430 73 181 2.0 4.0 0.00 0.00 0.00 36 1023.1
20180521161929 71 237 2.0 4.0 0.00 0.00 0.00 38 1023.3
20180521160431 73 350 2.0 4.0 0.00 0.00 0.00 36 1023.3
20180521154935 73 33 4.0 10.0 0.00 0.02 0.00 38 1023.4
20180521153437 71 10 2.0 5.0 0.00 0.02 0.00 38 1023.5
20180521151921 68 4 2.0 5.0 0.00 0.02 0.00 48 1023.5
20180521150425 67 292 2.0 5.0 0.00 0.02 0.00 48 1023.5
20180521144925 68 47 2.0 5.0 0.00 0.02 0.00 53 1023.7
20180521143427 71 127 3.0 7.0 0.00 0.02 0.00 48 1023.6
20180521141928 68 131 2.0 7.0 0.00 0.02 0.00 61 1023.7
20180521140432 64 83 1.0 3.0 0.00 0.02 0.00 70 1023.6
20180521134932 64 88 1.0 4.0 0.00 0.02 0.00 74 1023.6
20180521133433 60 104 1.0 3.0 0.00 0.02 0.00 86 1023.5
20180521131937 56 126 0.0 2.0 0.00 0.02 0.00 98 1023.6
20180521130421 52 189 0.0 3.0 0.00 0.02 0.00 98 1023.7
20180521124925 51 233 0.0 2.0 0.00 0.02 0.00 98 1023.8
20180521123428 50 233 0.0 1.0 0.00 0.02 0.00 98 1023.8
20180521121928 50 177 2.0 4.0 0.00 0.02 0.00 98 1023.8
20180521120435 48 228 1.0 2.0 0.00 0.02 0.00 98 1023.7
20180521114937 47 205 0.0 1.0 0.00 0.02 0.00 98 1023.5
20180521113424 47 337 0.0 0.0 0.00 0.02 0.00 97 1023.4
20180521111926 47 337 0.0 0.0 0.00 0.02 0.00 97 1023.3
20180521110429 46 337 0.0 1.0 0.00 0.02 0.00 97 1023.3
20180521104935 46 337 0.0 0.0 0.00 0.02 0.00 97 1023.1
20180521103438 46 337 0.0 0.0 0.00 0.02 0.00 97 1023.0
20180521101923 46 337 0.0 0.0 0.00 0.02 0.00 97 1022.7
20180521100426 46 337 0.0 0.0 0.00 0.02 0.00 97 1022.4
20180521094928 46 337 0.0 0.0 0.00 0.02 0.00 97 1022.0
20180521093435 47 337 0.0 0.0 0.00 0.02 0.00 97 1021.8
20180521091937 47 337 0.0 0.0 0.00 0.02 0.00 97 1021.8
20180521090424 47 337 0.0 0.0 0.00 0.02 0.00 97 1021.4
20180521084926 47 337 0.0 0.0 0.00 0.02 0.00 97 1021.3
20180521083428 47 337 0.0 0.0 0.00 0.02 0.00 97 1021.1
20180521081934 47 337 0.0 0.0 0.00 0.02 0.00 97 1021.1
20180521080436 47 337 0.0 0.0 0.00 0.02 0.00 96 1021.0
20180521074922 47 337 0.0 0.0 0.00 0.02 0.00 96 1020.8
20180521073427 47 337 0.0 0.0 0.00 0.02 0.00 96 1020.8
20180521071930 48 337 0.0 0.0 0.00 0.02 0.00 96 1020.7
20180521070417 48 337 0.0 0.0 0.00 0.02 0.00 96 1020.6
20180521064918 49 287 0.0 0.0 0.00 0.02 0.00 96 1020.5
20180521063425 49 287 0.0 0.0 0.00 0.02 0.00 96 1020.4
20180521061928 49 287 0.0 0.0 0.00 0.02 0.00 96 1020.3
20180521060430 49 287 0.0 0.0 0.00 0.02 0.00 96 1020.3
20180521054916 49 287 0.0 1.0 0.00 0.02 0.00 96 1020.3
20180521053420 50 287 0.0 1.0 0.00 0.02 0.00 96 1020.5
20180521051925 50 287 0.0 0.0 0.00 0.02 0.00 95 1020.6
20180521050428 49 287 0.0 0.0 0.00 0.02 0.00 95 1020.7
20180521044930 49 287 0.0 0.0 0.00 0.02 0.00 95 1020.4
20180521043416 50 287 0.0 0.0 0.00 0.02 0.00 95 1020.4
20180521041918 50 287 0.0 0.0 0.00 0.02 0.00 95 1020.2
20180521040423 51 287 0.0 0.0 0.00 0.02 0.00 94 1020.3